This is the latest recevied weather packets stored in our database for station/object EA1EXV-11. If no packets are shown the sender has not sent any weather packets the latest 10 day(s).
| Time | Temp. | Humidity | Pressure | Rain* | Wind** | Luminosity | Snow |
|---|---|---|---|---|---|---|---|
| 1777714518 | 17.22° C | 78% | 1017.5 hPa | - | - | - | - |
| 1777713614 | 16.67° C | 80% | 1017.6 hPa | - | - | - | - |
| 1777712714 | 15° C | 81% | 1017.6 hPa | - | - | - | - |
| 1777711813 | 15° C | 81% | 1017.4 hPa | - | - | - | - |
| 1777710913 | 15° C | 81% | 1017.4 hPa | - | - | - | - |
| 1777710013 | 15.56° C | 82% | 1017.4 hPa | - | - | - | - |
| 1777709113 | 15° C | 82% | 1017.5 hPa | - | - | - | - |
| 1777708213 | 14.44° C | 83% | 1017.6 hPa | - | - | - | - |
| 1777707313 | 13.89° C | 83% | 1017.4 hPa | - | - | - | - |
| 1777706413 | 13.33° C | 83% | 1017.5 hPa | - | - | - | - |
| 1777705513 | 13.33° C | 83% | 1017.5 hPa | - | - | - | - |
| 1777704613 | 12.78° C | 83% | 1017.4 hPa | - | - | - | - |
| 1777703713 | 12.22° C | 83% | 1017.5 hPa | - | - | - | - |
| 1777702812 | 11.67° C | 83% | 1017.6 hPa | - | - | - | - |
| 1777701912 | 11.11° C | 83% | 1017.3 hPa | - | - | - | - |
| 1777701012 | 10.56° C | 83% | 1017.2 hPa | - | - | - | - |
| 1777700112 | 10° C | 83% | 1017.3 hPa | - | - | - | - |
| 1777699212 | 10° C | 83% | 1017.2 hPa | - | - | - | - |
| 1777698312 | 10° C | 83% | 1017 hPa | - | - | - | - |
| 1777697412 | 10.56° C | 83% | 1016.8 hPa | - | - | - | - |
| 1777696513 | 10.56° C | 82% | 1016.8 hPa | - | - | - | - |
| 1777695612 | 10.56° C | 82% | 1016.9 hPa | - | - | - | - |
| 1777694712 | 10.56° C | 82% | 1017.1 hPa | - | - | - | - |
| 1777693812 | 10.56° C | 82% | 1017.1 hPa | - | - | - | - |
| 1777692911 | 10.56° C | 82% | 1017.2 hPa | - | - | - | - |
* Rain since midnight (hover to see other rain measurements)
** Current wind speed in m/s (hover to see current wind gust speed)